Alliance, NE

6:56 AM MDT on September 24, 2017 (GMT -0600)
Alliance Municipal

Weather History for KAIA - April, 2013

Change the Weather History Date:

Friday, April 26, 2013

  Actual Average Record
Temperature  
Mean Temperature 47 °F 48 °F  
Max Temperature 71 °F 63 °F 86 °F (1981)
Min Temperature 23 °F 32 °F 19 °F (1932)
Degree Days  
Heating Degree Days 18 17  
Month to date heating degree days 752 537  
Since 1 July heating degree days 6784 6823  
Cooling Degree Days 0 0  
Month to date cooling degree days 0 0  
Year to date cooling degree days 0 0  
Moisture  
Dew Point 24 °F    
Average Humidity 51    
Maximum Humidity 88    
Minimum Humidity 14    
Precipitation  
Precipitation 0.00 in 0.05 in 1.59 in (1972)
Month to date precipitation 0.14 1.24  
Year to date precipitation 0.71 2.65  
Sea Level Pressure  
Sea Level Pressure 30.09 in    
Wind  
Wind Speed 7 mph (North)    
Max Wind Speed 16 mph    
Max Gust Speed 28 mph    
Visibility 10 miles    
Events      
T = Trace of Precipitation, MM = Missing Value Source: NWS Daily Summary

Daily Weather History Graph

Daily Weather History Graph

Search for Another Location

Airport or City:

Trip Planner

Search our weather history database for the weather conditions in past years. The results will help you decide how hot, cold, wet, or windy it might be!

Date:

Astronomy

Apr. 26, 2013 Rise Set
Actual Time 5:53 AM MDT 7:44 PM MDT
Civil Twilight 5:23 AM MDT 8:15 PM MDT
Nautical Twilight 4:47 AM MDT 8:51 PM MDT
Astronomical Twilight 4:07 AM MDT 9:31 PM MDT
Moon 9:11 PM MDT (4/26) 6:21 AM MDT (4/26)
Length of Visible Light 14h 51m
Length of Day
13h 51m
Full, 99% of the Moon is Illuminated
Apr 26
Full
May 2
Last Quarter
May 9
New
May 17
First Quarter
May 24
Full

Hourly Weather History & Observations

Time (MDT) Temp. Windchill Dew Point Humidity Pressure Visibility Wind Dir Wind Speed Gust Speed Precip Events Conditions
12:53 AM 30.0 °F - 21.9 °F 72% 29.96 in 10.0 mi Calm Calm - N/A   Clear
1:53 AM 30.0 °F 22.4 °F 21.9 °F 72% 29.96 in 10.0 mi WNW 8.1 mph - N/A   Clear
2:53 AM 26.1 °F 20.5 °F 21.0 °F 81% 29.98 in 10.0 mi NW 4.6 mph - N/A   Clear
3:53 AM 25.0 °F - 19.9 °F 81% 29.99 in 10.0 mi Calm Calm - N/A   Clear
4:53 AM 23.0 °F 13.9 °F 19.0 °F 85% 30.01 in 10.0 mi West 8.1 mph - N/A   Clear
5:53 AM 30.0 °F 25.2 °F 23.0 °F 75% 30.03 in 10.0 mi WNW 4.6 mph - N/A   Clear
6:53 AM 32.0 °F - 27.0 °F 82% 30.06 in 10.0 mi Calm Calm - N/A   Clear
7:53 AM 42.1 °F 38.4 °F 30.0 °F 62% 30.09 in 10.0 mi West 5.8 mph - N/A   Clear
8:53 AM 54.0 °F - 30.9 °F 41% 30.10 in 10.0 mi North 10.4 mph - N/A   Clear
9:53 AM 61.0 °F - 28.0 °F 29% 30.12 in 10.0 mi North 9.2 mph - N/A   Clear
10:53 AM 64.0 °F - 25.0 °F 23% 30.12 in 10.0 mi North 8.1 mph - N/A   Clear
11:53 AM 66.9 °F - 21.0 °F 17% 30.13 in 10.0 mi North 11.5 mph 17.3 mph N/A   Clear
12:53 PM 68.0 °F - 21.9 °F 17% 30.13 in 10.0 mi North 11.5 mph 17.3 mph N/A   Clear
1:53 PM 69.1 °F - 19.9 °F 15% 30.13 in 10.0 mi North 9.2 mph - N/A   Clear
2:53 PM 70.0 °F - 19.9 °F 15% 30.14 in 10.0 mi North 11.5 mph - N/A   Scattered Clouds
3:53 PM 71.1 °F - 19.9 °F 14% 30.13 in 10.0 mi NE 9.2 mph 16.1 mph N/A   Clear
4:53 PM 70.0 °F - 21.0 °F 16% 30.12 in 10.0 mi NE 10.4 mph 18.4 mph N/A   Partly Cloudy
5:53 PM 69.1 °F - 19.9 °F 15% 30.11 in 10.0 mi NE 3.5 mph - N/A   Clear
6:53 PM 66.9 °F - 21.9 °F 18% 30.11 in 10.0 mi NE 3.5 mph - N/A   Clear
7:53 PM 50.0 °F - 27.0 °F 41% 30.13 in 10.0 mi ESE 8.1 mph - N/A   Clear
8:53 PM 46.9 °F - 27.0 °F 46% 30.12 in 10.0 mi Variable 5.8 mph - N/A   Clear
9:53 PM 42.1 °F 36.6 °F 28.9 °F 60% 30.13 in 10.0 mi SE 9.2 mph - N/A   Clear
10:53 PM 42.1 °F - 30.0 °F 62% 30.12 in 10.0 mi North - - N/A   Clear
11:53 PM 37.0 °F 31.6 °F 28.0 °F 70% 30.13 in 10.0 mi SSE 6.9 mph - N/A   Clear